Weather in Ufimskiy

Russia / Sverdlovsk Oblast     56°42′25″N   58°03′19″E
temp.,
°C
wind,
m/s
gust,
m/s
humid.,
%
clouds,
%
prec.,
mm/h
press.,
hPa
HPBL,
m
18 january, mon
mon1823:00−17w4119299 0.1 1010446
02:00−20w369993 0.0 1014143
05:00−23w239997 0.1 101734
08:00−25wsw129991 0.0 101920
11:00−23ssw239878 0.0 102091
14:00−19sw129240 0.0 1021236
17:00−22s129858 0.0 102220
20:00−24sw11980 0.0 102220
19 january, tue
tue1923:00−25sse01980 0.0 102220
02:00−25se119835 0.0 102220
05:00−23ene119468 0.0 102120
08:00−21ene1189100 0.0 102020
11:00−18ene2384100 0.0 102087
14:00−12e2680100 0.0 1018265
17:00−11ese3983100 0.0 1016427
20:00−12se51094100 0.4 1015524
20 january, wed
wed2023:00−11se41094100 1.1 1015603
02:00−11se4994100 0.8 1014517
05:00−12se3795100 1.6 1013399
08:00−13se3596100 0.8 1012248
11:00−14se2395100 1.2 1011195
14:00−12ssw1294100 0.8 1010246
17:00−12w4795100 1.4 1010478
20:00−15wsw4894100 0.6 1010465
21 january, thu
thu2123:00−17wsw4995100 1.1 1011504
02:00−17wsw4995100 0.6 1012516
05:00−18wsw41094100 0.9 1013460
08:00−18w4995100 0.1 1014415
11:00−20w379598 0.3 1016318
14:00−19wsw3794100 0.1 1016358
17:00−18sw3895100 0.2 1017397
20:00−18sw3994100 0.1 1017422
22 january, fri
fri2223:00−18sw41194100 0.3 1016425
02:00−17ssw41193100 0.1 1014456
05:00−17s51095100 0.6 1010499
08:00−16ssw41295100 2.1 1007784
11:00−17ssw51093100 3.4 1005710
14:00−13sw4793100 0.5 1005759
17:00−14w1297100 0.9 100727
20:00−16wnw1198100 0.2 101020